COSMOS 1476

Satellite information

Favourite Embed

Satellite Type and Status

PAYLOADIN ORBIT

Key statistics

Satellite COSMOS 1476 at a glance.

Uptime

15507

Days in orbit

Revolutions

≈ 12.5

Per day

Orbit

LEO

Low Earth Orbit

Inclination

74.0

Latest

Satellite identification and parameters

Extended collection of information and parameters for COSMOS 1476.

Object identification

Identified? True

Debris? False

Object name: COSMOS 1476

International designator: 1983-069D

Object number (NORAD): 14174

Object ID (CCSDS): 14174

Country: COMMONWEALTH OF INDEPENDENT STATES (CIS)

Current information (Y/N): Y

RCS size: MEDIUM

Orbital parameters

Period: 114.966 minutes

Inclination: 74.0251 deg

SMA: 7832.021 km

Apoapsis: 1461.897 km

Periapsis: 1445.876 km

RAAN: 114.2897 deg

Eccentricy: 0.00102274

Argument of periapsis: 85.001 deg

Mean anomaly: 27.3173 deg

Mean motion: 12.52541041 rev/day

Mean motion (dot): -0.00000031 rev/day2

B* drag term: -0.000094928588 1/REarth

Two-line elements (TLE)

Creation date: Dec. 19, 2025, 2:08 a.m.

Reference frame: TEME

Reference center: EARTH

Epoch: Dec. 18, 2025, 6:32 p.m. UTC

TLE line 0: 0 COSMOS 1476

TLE line 1: 1 14174U 83069D 25352.77288101 -.00000031 00000-0 -94929-4 0 9997

TLE line 2: 2 14174 74.0251 114.2897 0010227 85.0010 27.3173 12.52541041941211

Live tracking on map

Real-time ground track for satellite COSMOS 1476.

In-orbit conjunctions

There are no conjunctions computed for COSMOS 1476, at the moment. Check back to stay up to date, as we update our databases every day.

Go to all conjunctions

Associated space launch

Military communications satellites

COSMOS 1476 was lifted into orbit during the mission ‘Kosmos-3M | Strela-1M 265-272’, on board a Kosmos-3M space rocket.

The launch took place on July 6, 1983, 12:31 a.m. from 132/2.

For more information about the launch, click the button.

Launch to space Kosmos-3M | Strela-1M 265-272
Kosmos-3M | Strela-1M 265-272

Agency: N/A

Status: Launch Successful

Launch date: July 6, 1983, 12:31 a.m. UTC

Rocket: Kosmos-3M

Launch pad: 132/2

Location: Plesetsk Cosmodrome, Russian Federation

...

Latest news about this satellite

There are no fresh news available about this satellite. Check back as we update our databases every day.


Newsletter sign-up

Weekly statistics, charts and insights to help you stay on top of the space industry.